Time,TemperatureF,DewpointF,PressureIn,WindDirection,WindDirectionDegrees,WindSpeedMPH,WindSpeedGustMPH,Humidity,HourlyPrecipIn,Conditions,Clouds,dailyrainin,SoftwareType,DateUTC
2013-04-21 00:00:00,27.9,21.6,30.42,WNW,299,0.0,0.0,77,0.00,,,0.00,VWS V14.01,2013-04-21 04:00:00,
2013-04-21 00:01:00,27.9,21.6,30.42,WNW,299,0.0,0.0,77,0.00,,,0.00,VWS V14.01,2013-04-21 04:01:00,
2013-04-21 00:06:00,27.7,21.4,30.42,WNW,299,0.0,0.0,77,0.00,,,0.00,VWS V14.01,2013-04-21 04:06:00,
2013-04-21 00:11:00,27.7,21.4,30.42,WNW,299,0.0,0.0,77,0.00,,,0.00,VWS V14.01,2013-04-21 04:11:00,
2013-04-21 00:16:00,27.6,21.4,30.42,WNW,299,0.0,0.0,77,0.00,,,0.00,VWS V14.01,2013-04-21 04:16:00,
2013-04-21 00:21:00,27.6,21.4,30.42,WNW,299,0.0,0.0,77,0.00,,,0.00,VWS V14.01,2013-04-21 04:21:00,
2013-04-21 00:26:00,27.6,21.4,30.42,WNW,299,0.0,0.0,77,0.00,,,0.00,VWS V14.01,2013-04-21 04:26:00,
2013-04-21 00:31:00,27.6,21.6,30.42,WNW,299,0.0,0.0,78,0.00,,,0.00,VWS V14.01,2013-04-21 04:31:00,
2013-04-21 00:36:00,27.6,21.6,30.43,WNW,299,0.0,0.0,78,0.00,,,0.00,VWS V14.01,2013-04-21 04:36:00,
2013-04-21 00:41:00,27.5,21.9,30.42,WNW,299,0.0,0.0,79,0.00,,,0.00,VWS V14.01,2013-04-21 04:41:00,
2013-04-21 00:46:00,27.5,21.9,30.42,WNW,300,0.0,0.0,79,0.00,,,0.00,VWS V14.01,2013-04-21 04:46:00,
2013-04-21 00:51:00,27.3,21.7,30.43,WNW,299,0.0,0.0,79,0.00,,,0.00,VWS V14.01,2013-04-21 04:51:00,
2013-04-21 00:56:00,27.1,21.8,30.42,WNW,299,0.0,0.0,80,0.00,,,0.00,VWS V14.01,2013-04-21 04:56:00,
2013-04-21 01:00:00,27.0,22.0,30.42,WNW,299,0.0,0.0,81,0.00,,,0.00,VWS V14.01,2013-04-21 05:00:00,
2013-04-21 01:01:00,27.0,22.0,30.42,WNW,299,0.0,0.0,81,0.00,,,0.00,VWS V14.01,2013-04-21 05:01:00,
2013-04-21 01:06:00,26.8,22.0,30.43,WNW,299,0.0,0.0,82,0.00,,,0.00,VWS V14.01,2013-04-21 05:06:00,
2013-04-21 01:11:00,26.6,21.9,30.43,WNW,299,0.0,0.0,82,0.00,,,0.00,VWS V14.01,2013-04-21 05:11:00,
2013-04-21 01:16:00,26.6,21.9,30.43,WNW,299,0.0,0.0,82,0.00,,,0.00,VWS V14.01,2013-04-21 05:16:00,
2013-04-21 01:21:00,26.3,21.9,30.43,WNW,299,0.0,0.0,83,0.00,,,0.00,VWS V14.01,2013-04-21 05:21:00,
2013-04-21 01:26:00,26.2,21.8,30.44,WNW,299,0.0,0.0,83,0.00,,,0.00,VWS V14.01,2013-04-21 05:26:00,
2013-04-21 01:31:00,26.2,21.8,30.44,WNW,299,0.0,0.0,83,0.00,,,0.00,VWS V14.01,2013-04-21 05:31:00,
2013-04-21 01:36:00,26.2,22.0,30.44,WNW,299,0.0,0.0,84,0.00,,,0.00,VWS V14.01,2013-04-21 05:36:00,
2013-04-21 01:41:00,26.1,21.9,30.44,WNW,299,0.0,0.0,84,0.00,,,0.00,VWS V14.01,2013-04-21 05:41:00,
2013-04-21 01:46:00,26.1,21.9,30.44,WNW,299,0.0,0.0,84,0.00,,,0.00,VWS V14.01,2013-04-21 05:46:00,
2013-04-21 01:51:00,26.1,22.2,30.44,WNW,299,0.0,0.0,85,0.00,,,0.00,VWS V14.01,2013-04-21 05:51:00,
2013-04-21 01:56:00,26.1,22.2,30.45,WNW,299,0.0,0.0,85,0.00,,,0.00,VWS V14.01,2013-04-21 05:56:00,
2013-04-21 02:00:00,26.0,22.1,30.45,WNW,299,0.0,0.0,85,0.00,,,0.00,VWS V14.01,2013-04-21 06:00:00,
2013-04-21 02:01:00,26.0,22.1,30.45,WNW,300,0.0,0.0,85,0.00,,,0.00,VWS V14.01,2013-04-21 06:01:00,
2013-04-21 02:06:00,25.9,22.3,30.45,WNW,299,0.0,0.0,86,0.00,,,0.00,VWS V14.01,2013-04-21 06:06:00,
2013-04-21 02:11:00,25.7,22.1,30.45,WNW,299,0.0,0.0,86,0.00,,,0.00,VWS V14.01,2013-04-21 06:11:00,
2013-04-21 02:16:00,25.6,22.3,30.45,WNW,299,0.0,0.0,87,0.00,,,0.00,VWS V14.01,2013-04-21 06:16:00,
2013-04-21 02:21:00,25.5,22.2,30.45,WNW,299,0.0,0.0,87,0.00,,,0.00,VWS V14.01,2013-04-21 06:21:00,
2013-04-21 02:26:00,25.5,22.2,30.45,WNW,299,0.0,0.0,87,0.00,,,0.00,VWS V14.01,2013-04-21 06:26:00,
2013-04-21 02:31:00,25.4,22.4,30.45,WNW,299,0.0,0.0,88,0.00,,,0.00,VWS V14.01,2013-04-21 06:31:00,
2013-04-21 02:36:00,25.4,22.4,30.46,WNW,300,0.0,0.0,88,0.00,,,0.00,VWS V14.01,2013-04-21 06:36:00,
2013-04-21 02:41:00,25.2,22.1,30.46,WNW,299,0.0,0.0,88,0.00,,,0.00,VWS V14.01,2013-04-21 06:41:00,
2013-04-21 02:46:00,25.1,22.0,30.46,WNW,299,0.0,0.0,88,0.00,,,0.00,VWS V14.01,2013-04-21 06:46:00,
2013-04-21 02:51:00,25.0,22.0,30.46,WNW,299,0.0,0.0,88,0.00,,,0.00,VWS V14.01,2013-04-21 06:51:00,
2013-04-21 02:56:00,24.9,22.1,30.46,WNW,299,0.0,0.0,89,0.00,,,0.00,VWS V14.01,2013-04-21 06:56:00,
2013-04-21 03:00:00,24.8,22.0,30.46,WNW,299,0.0,0.0,89,0.00,,,0.00,VWS V14.01,2013-04-21 07:00:00,
2013-04-21 03:01:00,24.8,22.0,30.46,WNW,299,0.0,0.0,89,0.00,,,0.00,VWS V14.01,2013-04-21 07:01:00,
2013-04-21 03:06:00,24.7,21.9,30.46,WNW,299,0.0,0.0,89,0.00,,,0.00,VWS V14.01,2013-04-21 07:06:00,
2013-04-21 03:11:00,24.6,22.1,30.46,WNW,299,0.0,0.0,90,0.00,,,0.00,VWS V14.01,2013-04-21 07:11:00,
2013-04-21 03:16:00,24.6,22.1,30.46,WNW,299,0.0,0.0,90,0.00,,,0.00,VWS V14.01,2013-04-21 07:16:00,
2013-04-21 03:21:00,24.5,22.0,30.47,WNW,299,0.0,0.0,90,0.00,,,0.00,VWS V14.01,2013-04-21 07:21:00,
2013-04-21 03:26:00,24.4,21.9,30.47,WNW,299,0.0,0.0,90,0.00,,,0.00,VWS V14.01,2013-04-21 07:26:00,
2013-04-21 03:31:00,24.3,21.8,30.47,WNW,299,0.0,0.0,90,0.00,,,0.00,VWS V14.01,2013-04-21 07:31:00,
2013-04-21 03:36:00,24.2,21.7,30.46,WNW,299,0.0,0.0,90,0.00,,,0.00,VWS V14.01,2013-04-21 07:36:00,
2013-04-21 03:41:00,24.1,21.6,30.47,WNW,299,0.0,0.0,90,0.00,,,0.00,VWS V14.01,2013-04-21 07:41:00,
2013-04-21 03:46:00,24.0,21.5,30.47,WNW,299,0.0,0.0,90,0.00,,,0.00,VWS V14.01,2013-04-21 07:46:00,
2013-04-21 03:51:00,23.8,21.3,30.47,WNW,299,0.0,0.0,90,0.00,,,0.00,VWS V14.01,2013-04-21 07:51:00,
2013-04-21 03:56:00,23.7,21.5,30.47,WNW,300,0.0,0.0,91,0.00,,,0.00,VWS V14.01,2013-04-21 07:56:00,
2013-04-21 04:00:00,23.6,21.4,30.47,WNW,299,0.0,0.0,91,0.00,,,0.00,VWS V14.01,2013-04-21 08:00:00,
2013-04-21 04:01:00,23.6,21.4,30.47,WNW,299,0.0,0.0,91,0.00,,,0.00,VWS V14.01,2013-04-21 08:01:00,
2013-04-21 04:06:00,23.6,21.4,30.48,WNW,299,0.0,0.0,91,0.00,,,0.00,VWS V14.01,2013-04-21 08:06:00,
2013-04-21 04:11:00,23.5,21.3,30.48,WNW,299,0.0,0.0,91,0.00,,,0.00,VWS V14.01,2013-04-21 08:11:00,
2013-04-21 04:16:00,23.4,21.2,30.48,WNW,299,0.0,0.0,91,0.00,,,0.00,VWS V14.01,2013-04-21 08:16:00,
2013-04-21 04:21:00,23.3,21.1,30.48,WNW,299,0.0,0.0,91,0.00,,,0.00,VWS V14.01,2013-04-21 08:21:00,
2013-04-21 04:26:00,23.3,21.1,30.48,WNW,299,0.0,0.0,91,0.00,,,0.00,VWS V14.01,2013-04-21 08:26:00,
2013-04-21 04:31:00,23.3,21.3,30.48,WNW,299,0.0,0.0,92,0.00,,,0.00,VWS V14.01,2013-04-21 08:31:00,
2013-04-21 04:35:00,23.4,21.4,30.48,WNW,299,0.0,0.0,92,0.00,,,0.00,VWS V14.01,2013-04-21 08:35:00,
2013-04-21 04:40:00,23.3,21.3,30.49,WNW,299,0.0,0.0,92,0.00,,,0.00,VWS V14.01,2013-04-21 08:40:00,
2013-04-21 04:45:00,23.1,21.1,30.49,WNW,299,0.0,0.0,92,0.00,,,0.00,VWS V14.01,2013-04-21 08:45:00,
2013-04-21 04:50:00,22.9,20.9,30.49,WNW,299,0.0,0.0,92,0.00,,,0.00,VWS V14.01,2013-04-21 08:50:00,
2013-04-21 04:55:00,22.9,20.9,30.49,WNW,299,0.0,0.0,92,0.00,,,0.00,VWS V14.01,2013-04-21 08:55:00,
2013-04-21 05:00:00,22.9,20.9,30.49,WNW,299,0.0,0.0,92,0.00,,,0.00,VWS V14.01,2013-04-21 09:00:00,
2013-04-21 05:05:00,22.8,20.8,30.49,WNW,299,0.0,0.0,92,0.00,,,0.00,VWS V14.01,2013-04-21 09:05:00,
2013-04-21 05:10:00,22.7,20.7,30.49,WNW,299,0.0,0.0,92,0.00,,,0.00,VWS V14.01,2013-04-21 09:10:00,
2013-04-21 05:15:00,22.6,20.6,30.49,WNW,299,0.0,0.0,92,0.00,,,0.00,VWS V14.01,2013-04-21 09:15:00,
2013-04-21 05:20:00,22.5,20.5,30.49,WNW,299,0.0,0.0,92,0.00,,,0.00,VWS V14.01,2013-04-21 09:20:00,
2013-04-21 05:25:00,22.4,20.4,30.50,WNW,299,0.0,0.0,92,0.00,,,0.00,VWS V14.01,2013-04-21 09:25:00,
2013-04-21 05:30:00,22.4,20.4,30.50,WNW,299,0.0,0.0,92,0.00,,,0.00,VWS V14.01,2013-04-21 09:30:00,
2013-04-21 05:35:00,22.3,20.3,30.50,WNW,299,0.0,0.0,92,0.00,,,0.00,VWS V14.01,2013-04-21 09:35:00,
2013-04-21 05:40:00,22.2,20.5,30.50,WNW,299,0.0,0.0,93,0.00,,,0.00,VWS V14.01,2013-04-21 09:40:00,
2013-04-21 05:45:00,22.3,20.6,30.50,WNW,300,0.0,0.0,93,0.00,,,0.00,VWS V14.01,2013-04-21 09:45:00,
2013-04-21 05:50:00,22.3,20.6,30.50,WNW,299,0.0,0.0,93,0.00,,,0.00,VWS V14.01,2013-04-21 09:50:00,
2013-04-21 05:55:00,22.2,20.5,30.51,WNW,299,0.0,0.0,93,0.00,,,0.00,VWS V14.01,2013-04-21 09:55:00,
2013-04-21 06:00:00,22.2,20.5,30.51,WNW,299,0.0,0.0,93,0.00,,,0.00,VWS V14.01,2013-04-21 10:00:00,
2013-04-21 06:05:00,22.1,20.4,30.51,WNW,299,0.0,0.0,93,0.00,,,0.00,VWS V14.01,2013-04-21 10:05:00,
2013-04-21 06:10:00,22.1,20.4,30.51,WNW,299,0.0,0.0,93,0.00,,,0.00,VWS V14.01,2013-04-21 10:10:00,
2013-04-21 06:15:00,22.0,20.3,30.51,WNW,299,0.0,0.0,93,0.00,,,0.00,VWS V14.01,2013-04-21 10:15:00,
2013-04-21 06:20:00,22.0,20.3,30.52,WNW,299,0.0,0.0,93,0.00,,,0.00,VWS V14.01,2013-04-21 10:20:00,
2013-04-21 06:25:00,21.9,20.2,30.52,WNW,299,0.0,0.0,93,0.00,,,0.00,VWS V14.01,2013-04-21 10:25:00,
2013-04-21 06:30:00,21.8,20.1,30.52,WNW,299,0.0,0.0,93,0.00,,,0.00,VWS V14.01,2013-04-21 10:30:00,
2013-04-21 06:35:00,21.8,20.1,30.53,WNW,299,0.0,0.0,93,0.00,,,0.00,VWS V14.01,2013-04-21 10:35:00,
2013-04-21 06:40:00,21.7,20.0,30.53,WNW,299,0.0,0.0,93,0.00,,,0.00,VWS V14.01,2013-04-21 10:40:00,
2013-04-21 06:45:00,21.7,20.0,30.53,WNW,299,0.0,0.0,93,0.00,,,0.00,VWS V14.01,2013-04-21 10:45:00,
2013-04-21 06:50:00,21.6,19.9,30.53,WNW,299,0.0,0.0,93,0.00,,,0.00,VWS V14.01,2013-04-21 10:50:00,
2013-04-21 06:55:00,21.6,19.9,30.53,WNW,299,0.0,0.0,93,0.00,,,0.00,VWS V14.01,2013-04-21 10:55:00,
2013-04-21 07:00:00,21.5,19.8,30.54,WNW,299,0.0,0.0,93,0.00,,,0.00,VWS V14.01,2013-04-21 11:00:00,
2013-04-21 07:05:00,21.5,19.8,30.54,WNW,299,0.0,0.0,93,0.00,,,0.00,VWS V14.01,2013-04-21 11:05:00,
2013-04-21 07:10:00,21.6,19.9,30.54,WNW,299,0.0,0.0,93,0.00,,,0.00,VWS V14.01,2013-04-21 11:10:00,
2013-04-21 07:15:00,21.9,20.4,30.54,WNW,299,0.0,0.0,94,0.00,,,0.00,VWS V14.01,2013-04-21 11:15:00,
2013-04-21 07:20:00,22.1,20.6,30.55,WNW,299,0.0,0.0,94,0.00,,,0.00,VWS V14.01,2013-04-21 11:20:00,
2013-04-21 07:25:00,22.4,20.9,30.55,WNW,299,0.0,0.0,94,0.00,,,0.00,VWS V14.01,2013-04-21 11:25:00,
2013-04-21 07:30:00,22.7,21.2,30.55,WNW,299,0.0,0.0,94,0.00,,,0.00,VWS V14.01,2013-04-21 11:30:00,
2013-04-21 07:35:00,23.2,21.7,30.56,WNW,299,0.0,0.0,94,0.00,,,0.00,VWS V14.01,2013-04-21 11:35:00,
2013-04-21 07:40:00,23.7,22.2,30.56,WNW,299,0.0,0.0,94,0.00,,,0.00,VWS V14.01,2013-04-21 11:40:00,
2013-04-21 07:45:00,24.3,22.8,30.56,WNW,299,0.0,0.0,94,0.00,,,0.00,VWS V14.01,2013-04-21 11:45:00,
2013-04-21 07:50:00,25.3,24.1,30.56,WNW,299,0.0,0.0,95,0.00,,,0.00,VWS V14.01,2013-04-21 11:50:00,
2013-04-21 07:55:00,26.1,24.6,30.56,WNW,299,0.0,0.0,94,0.00,,,0.00,VWS V14.01,2013-04-21 11:55:00,
2013-04-21 08:00:00,27.2,26.0,30.56,WNW,299,0.0,0.0,95,0.00,,,0.00,VWS V14.01,2013-04-21 12:00:00,
2013-04-21 08:05:00,28.5,27.2,30.57,WNW,300,0.0,0.0,95,0.00,,,0.00,VWS V14.01,2013-04-21 12:05:00,
2013-04-21 08:10:00,30.1,28.6,30.57,WNW,300,0.0,0.0,94,0.00,,,0.00,VWS V14.01,2013-04-21 12:10:00,
2013-04-21 08:15:00,31.5,29.2,30.57,WNW,299,0.0,0.0,91,0.00,,,0.00,VWS V14.01,2013-04-21 12:15:00,
2013-04-21 08:20:00,32.5,29.4,30.57,WNW,302,0.0,4.0,88,0.00,,,0.00,VWS V14.01,2013-04-21 12:20:00,
2013-04-21 08:25:00,33.5,29.5,30.57,WNW,302,0.0,4.0,85,0.00,,,0.00,VWS V14.01,2013-04-21 12:25:00,
2013-04-21 08:30:00,34.4,29.8,30.57,WNW,302,0.0,4.0,83,0.00,,,0.00,VWS V14.01,2013-04-21 12:30:00,
2013-04-21 08:35:00,34.9,29.7,30.57,WNW,295,0.0,4.0,81,0.00,,,0.00,VWS V14.01,2013-04-21 12:35:00,
2013-04-21 08:40:00,35.0,28.5,30.57,ESE,117,2.0,6.0,77,0.00,,,0.00,VWS V14.01,2013-04-21 12:40:00,
2013-04-21 08:45:00,35.0,28.5,30.57,SE,124,5.0,7.0,77,0.00,,,0.00,VWS V14.01,2013-04-21 12:45:00,
2013-04-21 08:50:00,34.8,28.0,30.57,East,97,3.0,7.0,76,0.00,,,0.00,VWS V14.01,2013-04-21 12:50:00,
2013-04-21 08:55:00,35.1,28.3,30.57,SE,137,4.0,7.0,76,0.00,,,0.00,VWS V14.01,2013-04-21 12:55:00,
2013-04-21 09:00:00,35.3,28.8,30.57,East,88,2.0,2.0,77,0.00,,,0.00,VWS V14.01,2013-04-21 13:00:00,
2013-04-21 09:05:00,35.9,29.1,30.58,East,86,2.0,7.0,76,0.00,,,0.00,VWS V14.01,2013-04-21 13:05:00,
2013-04-21 09:10:00,36.1,29.0,30.57,East,80,7.0,7.0,75,0.00,,,0.00,VWS V14.01,2013-04-21 13:10:00,
2013-04-21 09:15:00,36.4,28.9,30.57,ESE,115,4.0,9.0,74,0.00,,,0.00,VWS V14.01,2013-04-21 13:15:00,
2013-04-21 09:20:00,36.5,28.7,30.57,East,95,6.0,9.0,73,0.00,,,0.00,VWS V14.01,2013-04-21 13:20:00,
2013-04-21 09:25:00,36.7,29.2,30.57,ENE,78,4.0,9.0,74,0.00,,,0.00,VWS V14.01,2013-04-21 13:25:00,
2013-04-21 09:30:00,37.1,28.6,30.57,ENE,77,3.0,9.0,71,0.00,,,0.00,VWS V14.01,2013-04-21 13:30:00,
2013-04-21 09:35:00,37.4,28.9,30.57,East,82,9.0,10.0,71,0.00,,,0.00,VWS V14.01,2013-04-21 13:35:00,
2013-04-21 09:40:00,37.7,29.2,30.58,East,94,5.0,10.0,71,0.00,,,0.00,VWS V14.01,2013-04-21 13:40:00,
2013-04-21 09:45:00,38.1,29.5,30.57,SE,143,5.0,10.0,71,0.00,,,0.00,VWS V14.01,2013-04-21 13:45:00,
2013-04-21 09:50:00,38.1,29.2,30.57,East,81,6.0,10.0,70,0.00,,,0.00,VWS V14.01,2013-04-21 13:50:00,
2013-04-21 09:55:00,38.0,28.8,30.57,ESE,117,6.0,15.0,69,0.00,,,0.00,VWS V14.01,2013-04-21 13:55:00,
2013-04-21 10:00:00,38.1,29.2,30.58,ESE,122,9.0,9.0,70,0.00,,,0.00,VWS V14.01,2013-04-21 14:00:00,
2013-04-21 10:05:00,38.2,29.6,30.58,East,84,2.0,10.0,71,0.00,,,0.00,VWS V14.01,2013-04-21 14:05:00,
2013-04-21 10:10:00,38.6,29.7,30.58,ENE,73,7.0,10.0,70,0.00,,,0.00,VWS V14.01,2013-04-21 14:10:00,
2013-04-21 10:15:00,38.8,29.9,30.58,ENE,74,8.0,10.0,70,0.00,,,0.00,VWS V14.01,2013-04-21 14:15:00,
2013-04-21 10:20:00,38.9,30.0,30.58,SE,125,2.0,11.0,70,0.00,,,0.00,VWS V14.01,2013-04-21 14:20:00,
2013-04-21 10:25:00,39.5,29.8,30.58,SSE,155,7.0,11.0,68,0.00,,,0.00,VWS V14.01,2013-04-21 14:25:00,
2013-04-21 10:30:00,39.8,29.4,30.58,SE,133,5.0,11.0,66,0.00,,,0.00,VWS V14.01,2013-04-21 14:30:00,
2013-04-21 10:35:00,39.8,29.4,30.58,ESE,109,6.0,12.0,66,0.00,,,0.00,VWS V14.01,2013-04-21 14:35:00,
2013-04-21 10:40:00,39.4,28.6,30.58,SSE,158,8.0,12.0,65,0.00,,,0.00,VWS V14.01,2013-04-21 14:40:00,
2013-04-21 10:45:00,39.5,28.7,30.58,ENE,74,5.0,12.0,65,0.00,,,0.00,VWS V14.01,2013-04-21 14:45:00,
2013-04-21 10:50:00,39.6,28.8,30.58,SE,128,4.0,14.0,65,0.00,,,0.00,VWS V14.01,2013-04-21 14:50:00,
2013-04-21 10:55:00,39.7,29.3,30.58,East,79,6.0,14.0,66,0.00,,,0.00,VWS V14.01,2013-04-21 14:55:00,
2013-04-21 11:00:00,39.9,28.7,30.58,ENE,69,2.0,3.0,64,0.00,,,0.00,VWS V14.01,2013-04-21 15:00:00,
2013-04-21 11:05:00,40.1,28.9,30.58,East,96,7.0,13.0,64,0.00,,,0.00,VWS V14.01,2013-04-21 15:05:00,
2013-04-21 11:10:00,40.6,29.4,30.58,SE,146,6.0,13.0,64,0.00,,,0.00,VWS V14.01,2013-04-21 15:10:00,
2013-04-21 11:15:00,40.7,29.1,30.58,SSE,152,9.0,13.0,63,0.00,,,0.00,VWS V14.01,2013-04-21 15:15:00,
2013-04-21 11:20:00,41.0,29.8,30.57,SSE,153,7.0,13.0,64,0.00,,,0.00,VWS V14.01,2013-04-21 15:20:00,
2013-04-21 11:25:00,41.1,29.5,30.58,ESE,115,12.0,13.0,63,0.00,,,0.00,VWS V14.01,2013-04-21 15:25:00,
2013-04-21 11:30:00,41.3,30.1,30.58,SE,146,7.0,13.0,64,0.00,,,0.00,VWS V14.01,2013-04-21 15:30:00,
2013-04-21 11:35:00,41.6,29.6,30.58,ESE,123,6.0,13.0,62,0.00,,,0.00,VWS V14.01,2013-04-21 15:35:00,
2013-04-21 11:40:00,41.7,30.4,30.58,ENE,71,1.0,13.0,64,0.00,,,0.00,VWS V14.01,2013-04-21 15:40:00,
2013-04-21 11:45:00,42.0,30.7,30.58,ESE,121,5.0,15.0,64,0.00,,,0.00,VWS V14.01,2013-04-21 15:45:00,
2013-04-21 11:50:00,42.3,31.4,30.57,SSE,152,8.0,15.0,65,0.00,,,0.00,VWS V14.01,2013-04-21 15:50:00,
2013-04-21 11:55:00,42.6,30.9,30.57,ESE,112,5.0,15.0,63,0.00,,,0.00,VWS V14.01,2013-04-21 15:55:00,
2013-04-21 12:00:00,42.7,31.0,30.57,ENE,59,6.0,7.0,63,0.00,,,0.00,VWS V14.01,2013-04-21 16:00:00,
2013-04-21 12:05:00,42.8,31.1,30.57,SE,143,6.0,11.0,63,0.00,,,0.00,VWS V14.01,2013-04-21 16:05:00,
2013-04-21 12:10:00,43.0,31.3,30.57,ENE,75,6.0,11.0,63,0.00,,,0.00,VWS V14.01,2013-04-21 16:10:00,
2013-04-21 12:15:00,43.4,31.7,30.57,ESE,107,4.0,11.0,63,0.00,,,0.00,VWS V14.01,2013-04-21 16:15:00,
2013-04-21 12:20:00,43.4,31.3,30.57,ENE,60,2.0,11.0,62,0.00,,,0.00,VWS V14.01,2013-04-21 16:20:00,
2013-04-21 12:25:00,43.3,30.8,30.57,ESE,103,2.0,13.0,61,0.00,,,0.00,VWS V14.01,2013-04-21 16:25:00,
2013-04-21 12:30:00,43.4,31.7,30.56,SE,126,9.0,13.0,63,0.00,,,0.00,VWS V14.01,2013-04-21 16:30:00,
2013-04-21 12:35:00,42.9,30.4,30.56,East,82,3.0,13.0,61,0.00,,,0.00,VWS V14.01,2013-04-21 16:35:00,
2013-04-21 12:40:00,42.8,31.1,30.56,SE,126,9.0,13.0,63,0.00,,,0.00,VWS V14.01,2013-04-21 16:40:00,
2013-04-21 12:45:00,43.2,31.1,30.56,ESE,118,5.0,13.0,62,0.00,,,0.00,VWS V14.01,2013-04-21 16:45:00,
2013-04-21 12:50:00,43.8,31.6,30.56,SSE,148,6.0,13.0,62,0.00,,,0.00,VWS V14.01,2013-04-21 16:50:00,
2013-04-21 12:55:00,44.5,32.7,30.55,SSE,154,5.0,13.0,63,0.00,,,0.00,VWS V14.01,2013-04-21 16:55:00,
2013-04-21 13:00:00,44.4,31.4,30.55,ESE,118,2.0,2.0,60,0.00,,,0.00,VWS V14.01,2013-04-21 17:00:00,
2013-04-21 13:05:00,44.4,32.2,30.55,ENE,65,4.0,10.0,62,0.00,,,0.00,VWS V14.01,2013-04-21 17:05:00,
2013-04-21 13:10:00,44.6,32.4,30.55,SE,140,4.0,10.0,62,0.00,,,0.00,VWS V14.01,2013-04-21 17:10:00,
2013-04-21 13:15:00,44.0,30.6,30.55,South,182,6.0,11.0,59,0.00,,,0.00,VWS V14.01,2013-04-21 17:15:00,
2013-04-21 13:20:00,43.8,32.0,30.55,ESE,111,4.0,12.0,63,0.00,,,0.00,VWS V14.01,2013-04-21 17:20:00,
2013-04-21 13:25:00,44.3,32.1,30.55,South,169,5.0,12.0,62,0.00,,,0.00,VWS V14.01,2013-04-21 17:25:00,
2013-04-21 13:30:00,44.6,32.0,30.55,SE,126,7.0,14.0,61,0.00,,,0.00,VWS V14.01,2013-04-21 17:30:00,
2013-04-21 13:35:00,44.5,31.9,30.54,East,81,5.0,14.0,61,0.00,,,0.00,VWS V14.01,2013-04-21 17:35:00,
2013-04-21 13:40:00,44.3,31.7,30.54,ENE,76,4.0,14.0,61,0.00,,,0.00,VWS V14.01,2013-04-21 17:40:00,
2013-04-21 13:45:00,45.2,33.4,30.54,SE,138,6.0,14.0,63,0.00,,,0.00,VWS V14.01,2013-04-21 17:45:00,
2013-04-21 13:50:00,45.2,32.6,30.54,SE,132,7.0,14.0,61,0.00,,,0.00,VWS V14.01,2013-04-21 17:50:00,
2013-04-21 13:55:00,45.4,32.8,30.53,SE,145,5.0,14.0,61,0.00,,,0.00,VWS V14.01,2013-04-21 17:55:00,
2013-04-21 14:00:00,45.2,32.6,30.53,ESE,119,0.0,0.0,61,0.00,,,0.00,VWS V14.01,2013-04-21 18:00:00,
2013-04-21 14:05:00,45.3,33.5,30.53,SE,130,12.0,12.0,63,0.00,,,0.00,VWS V14.01,2013-04-21 18:05:00,
2013-04-21 14:10:00,45.6,32.1,30.53,ESE,113,12.0,15.0,59,0.00,,,0.00,VWS V14.01,2013-04-21 18:10:00,
2013-04-21 14:15:00,45.5,33.7,30.53,SSE,152,5.0,15.0,63,0.00,,,0.00,VWS V14.01,2013-04-21 18:15:00,
2013-04-21 14:20:00,45.3,33.1,30.53,SE,129,8.0,15.0,62,0.00,,,0.00,VWS V14.01,2013-04-21 18:20:00,
2013-04-21 14:25:00,45.1,32.1,30.53,SSE,159,8.0,15.0,60,0.00,,,0.00,VWS V14.01,2013-04-21 18:25:00,
2013-04-21 14:30:00,44.5,31.9,30.52,ESE,111,3.0,15.0,61,0.00,,,0.00,VWS V14.01,2013-04-21 18:30:00,
2013-04-21 14:35:00,44.9,32.7,30.53,SSE,148,5.0,15.0,62,0.00,,,0.00,VWS V14.01,2013-04-21 18:35:00,
2013-04-21 14:40:00,45.0,32.4,30.52,ESE,106,5.0,15.0,61,0.00,,,0.00,VWS V14.01,2013-04-21 18:40:00,
2013-04-21 14:45:00,45.2,31.7,30.53,SE,133,7.0,15.0,59,0.00,,,0.00,VWS V14.01,2013-04-21 18:45:00,
2013-04-21 14:50:00,45.0,32.8,30.52,East,82,4.0,15.0,62,0.00,,,0.00,VWS V14.01,2013-04-21 18:50:00,
2013-04-21 14:55:00,45.0,32.8,30.52,SSE,147,7.0,15.0,62,0.00,,,0.00,VWS V14.01,2013-04-21 18:55:00,
2013-04-21 15:00:00,45.0,31.5,30.53,SE,130,4.0,7.0,59,0.00,,,0.00,VWS V14.01,2013-04-21 19:00:00,
2013-04-21 15:05:00,45.2,32.2,30.52,ESE,103,7.0,9.0,60,0.00,,,0.00,VWS V14.01,2013-04-21 19:05:00,
2013-04-21 15:10:00,45.7,32.2,30.52,SE,138,11.0,11.0,59,0.00,,,0.00,VWS V14.01,2013-04-21 19:10:00,
2013-04-21 15:15:00,45.7,32.2,30.52,ESE,104,4.0,11.0,59,0.00,,,0.00,VWS V14.01,2013-04-21 19:15:00,
2013-04-21 15:20:00,45.6,31.7,30.52,ENE,76,7.0,11.0,58,0.00,,,0.00,VWS V14.01,2013-04-21 19:20:00,
2013-04-21 15:25:00,46.1,32.6,30.51,SE,134,1.0,11.0,59,0.00,,,0.00,VWS V14.01,2013-04-21 19:25:00,
2013-04-21 15:30:00,46.5,33.4,30.51,SE,135,5.0,11.0,60,0.00,,,0.00,VWS V14.01,2013-04-21 19:30:00,
2013-04-21 15:35:00,46.7,32.3,30.51,SE,126,3.0,11.0,57,0.00,,,0.00,VWS V14.01,2013-04-21 19:35:00,
2013-04-21 15:40:00,46.1,33.0,30.51,ENE,63,6.0,11.0,60,0.00,,,0.00,VWS V14.01,2013-04-21 19:40:00,
2013-04-21 15:45:00,45.5,32.4,30.50,SE,140,5.0,11.0,60,0.00,,,0.00,VWS V14.01,2013-04-21 19:45:00,
2013-04-21 15:50:00,45.7,32.6,30.50,SSE,160,8.0,11.0,60,0.00,,,0.00,VWS V14.01,2013-04-21 19:50:00,
2013-04-21 15:55:00,46.0,32.9,30.50,ENE,71,5.0,11.0,60,0.00,,,0.00,VWS V14.01,2013-04-21 19:55:00,
2013-04-21 16:00:00,46.2,32.7,30.49,SE,145,6.0,6.0,59,0.00,,,0.00,VWS V14.01,2013-04-21 20:00:00,
2013-04-21 16:05:00,46.0,32.1,30.49,SE,129,3.0,12.0,58,0.00,,,0.00,VWS V14.01,2013-04-21 20:05:00,
2013-04-21 16:10:00,45.6,31.3,30.49,SE,144,7.0,14.0,57,0.00,,,0.00,VWS V14.01,2013-04-21 20:10:00,
2013-04-21 16:15:00,45.7,32.2,30.49,East,95,3.0,14.0,59,0.00,,,0.00,VWS V14.01,2013-04-21 20:15:00,
2013-04-21 16:20:00,45.8,32.7,30.48,NE,53,6.0,14.0,60,0.00,,,0.00,VWS V14.01,2013-04-21 20:20:00,
2013-04-21 16:25:00,45.8,32.7,30.48,East,93,5.0,14.0,60,0.00,,,0.00,VWS V14.01,2013-04-21 20:25:00,
2013-04-21 16:30:00,45.7,30.9,30.48,ENE,75,8.0,14.0,56,0.00,,,0.00,VWS V14.01,2013-04-21 20:30:00,
2013-04-21 16:35:00,45.5,32.0,30.48,ENE,74,4.0,14.0,59,0.00,,,0.00,VWS V14.01,2013-04-21 20:35:00,
2013-04-21 16:40:00,45.5,32.0,30.48,SE,138,6.0,14.0,59,0.00,,,0.00,VWS V14.01,2013-04-21 20:40:00,
2013-04-21 16:45:00,46.0,31.2,30.47,SE,124,6.0,14.0,56,0.00,,,0.00,VWS V14.01,2013-04-21 20:45:00,
2013-04-21 16:50:00,46.0,32.1,30.47,SE,144,9.0,14.0,58,0.00,,,0.00,VWS V14.01,2013-04-21 20:50:00,
2013-04-21 16:55:00,45.8,32.3,30.47,ESE,107,4.0,14.0,59,0.00,,,0.00,VWS V14.01,2013-04-21 20:55:00,
2013-04-21 17:00:00,45.9,32.0,30.47,ESE,107,2.0,14.0,58,0.00,,,0.00,VWS V14.01,2013-04-21 21:00:00,
2013-04-21 17:05:00,45.9,32.0,30.47,ENE,69,7.0,12.0,58,0.00,,,0.00,VWS V14.01,2013-04-21 21:05:00,
2013-04-21 17:10:00,46.1,31.7,30.47,SSE,152,7.0,12.0,57,0.00,,,0.00,VWS V14.01,2013-04-21 21:10:00,
2013-04-21 17:15:00,46.1,31.3,30.47,SE,141,10.0,12.0,56,0.00,,,0.00,VWS V14.01,2013-04-21 21:15:00,
2013-04-21 17:20:00,45.7,29.6,30.47,SE,138,6.0,13.0,53,0.00,,,0.00,VWS V14.01,2013-04-21 21:20:00,
2013-04-21 17:25:00,45.6,28.5,30.47,SE,126,4.0,15.0,51,0.00,,,0.00,VWS V14.01,2013-04-21 21:25:00,
2013-04-21 17:30:00,45.4,28.4,30.47,ESE,104,3.0,15.0,51,0.00,,,0.00,VWS V14.01,2013-04-21 21:30:00,
2013-04-21 17:35:00,45.7,30.9,30.47,ENE,64,2.0,15.0,56,0.00,,,0.00,VWS V14.01,2013-04-21 21:35:00,
2013-04-21 17:40:00,45.7,30.5,30.47,East,79,5.0,15.0,55,0.00,,,0.00,VWS V14.01,2013-04-21 21:40:00,
2013-04-21 17:45:00,45.8,29.2,30.47,SSE,150,7.0,15.0,52,0.00,,,0.00,VWS V14.01,2013-04-21 21:45:00,
2013-04-21 17:50:00,45.6,29.5,30.47,ENE,76,4.0,15.0,53,0.00,,,0.00,VWS V14.01,2013-04-21 21:50:00,
2013-04-21 17:55:00,45.6,28.5,30.47,SE,142,1.0,15.0,51,0.00,,,0.00,VWS V14.01,2013-04-21 21:55:00,
2013-04-21 18:00:00,45.9,28.8,30.47,SE,144,4.0,15.0,51,0.00,,,0.00,VWS V14.01,2013-04-21 22:00:00,
2013-04-21 18:05:00,45.7,28.6,30.47,SSE,149,6.0,12.0,51,0.00,,,0.00,VWS V14.01,2013-04-21 22:05:00,
2013-04-21 18:10:00,45.3,28.2,30.47,ESE,109,5.0,14.0,51,0.00,,,0.00,VWS V14.01,2013-04-21 22:10:00,
2013-04-21 18:15:00,45.2,28.2,30.47,East,92,5.0,14.0,51,0.00,,,0.00,VWS V14.01,2013-04-21 22:15:00,
2013-04-21 18:20:00,45.2,28.6,30.47,ENE,67,6.0,14.0,52,0.00,,,0.00,VWS V14.01,2013-04-21 22:20:00,
2013-04-21 18:25:00,45.2,27.2,30.47,East,86,5.0,14.0,49,0.00,,,0.00,VWS V14.01,2013-04-21 22:25:00,
2013-04-21 18:30:00,45.1,27.6,30.47,East,92,4.0,14.0,50,0.00,,,0.00,VWS V14.01,2013-04-21 22:30:00,
2013-04-21 18:35:00,45.1,27.6,30.47,SSE,151,7.0,14.0,50,0.00,,,0.00,VWS V14.01,2013-04-21 22:35:00,
2013-04-21 18:40:00,45.0,26.0,30.47,SE,132,4.0,14.0,47,0.00,,,0.00,VWS V14.01,2013-04-21 22:40:00,
2013-04-21 18:45:00,44.9,26.4,30.46,SE,136,6.0,14.0,48,0.00,,,0.00,VWS V14.01,2013-04-21 22:45:00,
2013-04-21 18:50:00,44.8,25.3,30.46,SE,128,6.0,14.0,46,0.00,,,0.00,VWS V14.01,2013-04-21 22:50:00,
2013-04-21 18:55:00,44.6,25.6,30.46,East,87,4.0,14.0,47,0.00,,,0.00,VWS V14.01,2013-04-21 22:55:00,
2013-04-21 19:00:00,44.7,25.7,30.46,ENE,73,5.0,14.0,47,0.00,,,0.00,VWS V14.01,2013-04-21 23:00:00,
2013-04-21 19:05:00,44.5,25.5,30.45,East,82,3.0,10.0,47,0.00,,,0.00,VWS V14.01,2013-04-21 23:05:00,
2013-04-21 19:10:00,44.6,26.6,30.45,SE,140,5.0,10.0,49,0.00,,,0.00,VWS V14.01,2013-04-21 23:10:00,
2013-04-21 19:15:00,44.6,25.6,30.45,ESE,121,3.0,10.0,47,0.00,,,0.00,VWS V14.01,2013-04-21 23:15:00,
2013-04-21 19:20:00,44.4,25.5,30.45,East,82,6.0,10.0,47,0.00,,,0.00,VWS V14.01,2013-04-21 23:20:00,
2013-04-21 19:25:00,44.0,25.1,30.45,ESE,104,4.0,10.0,47,0.00,,,0.00,VWS V14.01,2013-04-21 23:25:00,
2013-04-21 19:30:00,43.8,24.4,30.45,SSE,148,2.0,10.0,46,0.00,,,0.00,VWS V14.01,2013-04-21 23:30:00,
2013-04-21 19:35:00,43.8,25.4,30.45,East,83,4.0,10.0,48,0.00,,,0.00,VWS V14.01,2013-04-21 23:35:00,
2013-04-21 19:40:00,43.7,25.8,30.45,ESE,123,1.0,10.0,49,0.00,,,0.00,VWS V14.01,2013-04-21 23:40:00,
2013-04-21 19:45:00,43.5,25.1,30.45,ESE,118,0.0,10.0,48,0.00,,,0.00,VWS V14.01,2013-04-21 23:45:00,
2013-04-21 19:50:00,43.3,25.4,30.45,SE,138,5.0,10.0,49,0.00,,,0.00,VWS V14.01,2013-04-21 23:50:00,
2013-04-21 19:55:00,43.1,24.8,30.45,East,87,4.0,10.0,48,0.00,,,0.00,VWS V14.01,2013-04-21 23:55:00,
2013-04-21 20:00:00,42.8,25.0,30.46,ESE,119,2.0,11.0,49,0.00,,,0.00,VWS V14.01,2013-04-22 00:00:00,
2013-04-21 20:05:00,42.6,25.3,30.45,ESE,105,4.0,8.0,50,0.00,,,0.00,VWS V14.01,2013-04-22 00:05:00,
2013-04-21 20:10:00,42.3,25.5,30.45,SE,133,2.0,10.0,51,0.00,,,0.00,VWS V14.01,2013-04-22 00:10:00,
2013-04-21 20:15:00,42.1,26.2,30.45,ESE,119,4.0,10.0,53,0.00,,,0.00,VWS V14.01,2013-04-22 00:15:00,
2013-04-21 20:20:00,41.9,26.5,30.44,SE,136,4.0,10.0,54,0.00,,,0.00,VWS V14.01,2013-04-22 00:20:00,
2013-04-21 20:25:00,41.6,26.6,30.45,East,93,3.0,10.0,55,0.00,,,0.00,VWS V14.01,2013-04-22 00:25:00,
2013-04-21 20:30:00,41.4,26.9,30.45,SE,128,4.0,10.0,56,0.00,,,0.00,VWS V14.01,2013-04-22 00:30:00,
2013-04-21 20:35:00,41.1,27.9,30.45,SE,134,4.0,10.0,59,0.00,,,0.00,VWS V14.01,2013-04-22 00:35:00,
2013-04-21 20:40:00,40.7,28.3,30.44,SE,146,8.0,10.0,61,0.00,,,0.00,VWS V14.01,2013-04-22 00:40:00,
2013-04-21 20:45:00,40.4,28.4,30.45,SE,125,2.0,10.0,62,0.00,,,0.00,VWS V14.01,2013-04-22 00:45:00,
2013-04-21 20:50:00,40.0,28.4,30.45,ESE,114,1.0,10.0,63,0.00,,,0.00,VWS V14.01,2013-04-22 00:50:00,
2013-04-21 20:55:00,39.7,28.1,30.45,SE,124,5.0,10.0,63,0.00,,,0.00,VWS V14.01,2013-04-22 00:55:00,
2013-04-21 21:00:00,39.5,28.0,30.45,SE,132,2.0,10.0,63,0.00,,,0.00,VWS V14.01,2013-04-22 01:00:00,
2013-04-21 21:05:00,39.3,27.8,30.45,SE,140,4.0,9.0,63,0.00,,,0.00,VWS V14.01,2013-04-22 01:05:00,
2013-04-21 21:10:00,39.0,27.5,30.45,SE,146,4.0,10.0,63,0.00,,,0.00,VWS V14.01,2013-04-22 01:10:00,
2013-04-21 21:15:00,38.9,27.8,30.45,SE,140,6.0,10.0,64,0.00,,,0.00,VWS V14.01,2013-04-22 01:15:00,
2013-04-21 21:20:00,38.7,27.6,30.45,SE,132,6.0,10.0,64,0.00,,,0.00,VWS V14.01,2013-04-22 01:20:00,
2013-04-21 21:25:00,38.5,27.8,30.45,ESE,121,4.0,10.0,65,0.00,,,0.00,VWS V14.01,2013-04-22 01:25:00,
2013-04-21 21:30:00,38.3,28.0,30.45,ESE,114,3.0,10.0,66,0.00,,,0.00,VWS V14.01,2013-04-22 01:30:00,
2013-04-21 21:35:00,38.1,28.1,30.45,ESE,119,0.0,10.0,67,0.00,,,0.00,VWS V14.01,2013-04-22 01:35:00,
2013-04-21 21:40:00,37.9,28.3,30.45,SE,137,5.0,10.0,68,0.00,,,0.00,VWS V14.01,2013-04-22 01:40:00,
2013-04-21 21:45:00,37.7,28.5,30.46,SE,128,1.0,10.0,69,0.00,,,0.00,VWS V14.01,2013-04-22 01:45:00,
2013-04-21 21:50:00,37.5,29.0,30.45,ESE,102,2.0,10.0,71,0.00,,,0.00,VWS V14.01,2013-04-22 01:50:00,
2013-04-21 21:55:00,37.3,28.8,30.46,SE,137,3.0,10.0,71,0.00,,,0.00,VWS V14.01,2013-04-22 01:55:00,
2013-04-21 22:00:00,37.1,28.9,30.46,ESE,123,6.0,10.0,72,0.00,,,0.00,VWS V14.01,2013-04-22 02:00:00,
2013-04-21 22:05:00,37.0,29.2,30.45,SE,133,0.0,7.0,73,0.00,,,0.00,VWS V14.01,2013-04-22 02:05:00,
2013-04-21 22:10:00,36.8,29.3,30.45,East,101,4.0,7.0,74,0.00,,,0.00,VWS V14.01,2013-04-22 02:10:00,
2013-04-21 22:15:00,36.7,29.5,30.45,ESE,118,2.0,7.0,75,0.00,,,0.00,VWS V14.01,2013-04-22 02:15:00,
2013-04-21 22:20:00,36.5,29.3,30.45,SE,145,5.0,7.0,75,0.00,,,0.00,VWS V14.01,2013-04-22 02:20:00,
2013-04-21 22:25:00,36.4,29.6,30.45,ESE,115,1.0,7.0,76,0.00,,,0.00,VWS V14.01,2013-04-22 02:25:00,
2013-04-21 22:30:00,36.3,29.8,30.45,ESE,102,5.0,9.0,77,0.00,,,0.00,VWS V14.01,2013-04-22 02:30:00,
2013-04-21 22:35:00,36.2,30.0,30.45,SE,129,1.0,9.0,78,0.00,,,0.00,VWS V14.01,2013-04-22 02:35:00,
2013-04-21 22:40:00,36.1,29.9,30.45,SE,142,8.0,9.0,78,0.00,,,0.00,VWS V14.01,2013-04-22 02:40:00,
2013-04-21 22:45:00,36.0,30.1,30.45,ESE,105,5.0,9.0,79,0.00,,,0.00,VWS V14.01,2013-04-22 02:45:00,
2013-04-21 22:50:00,36.0,30.1,30.44,SE,126,1.0,9.0,79,0.00,,,0.00,VWS V14.01,2013-04-22 02:50:00,
2013-04-21 22:55:00,35.9,30.3,30.44,SE,126,4.0,9.0,80,0.00,,,0.00,VWS V14.01,2013-04-22 02:55:00,
2013-04-21 23:00:00,35.8,30.2,30.44,SE,134,2.0,9.0,80,0.00,,,0.00,VWS V14.01,2013-04-22 03:00:00,
2013-04-21 23:05:00,35.7,30.1,30.44,SE,126,6.0,6.0,80,0.00,,,0.00,VWS V14.01,2013-04-22 03:05:00,
2013-04-21 23:10:00,35.6,30.4,30.44,ENE,75,5.0,9.0,81,0.00,,,0.00,VWS V14.01,2013-04-22 03:10:00,
2013-04-21 23:15:00,35.5,30.3,30.44,ESE,114,3.0,9.0,81,0.00,,,0.00,VWS V14.01,2013-04-22 03:15:00,
2013-04-21 23:20:00,35.4,30.5,30.44,ESE,115,4.0,9.0,82,0.00,,,0.00,VWS V14.01,2013-04-22 03:20:00,
2013-04-21 23:25:00,35.3,30.4,30.43,SE,130,6.0,9.0,82,0.00,,,0.00,VWS V14.01,2013-04-22 03:25:00,
2013-04-21 23:30:00,35.2,30.3,30.43,ESE,118,0.0,9.0,82,0.00,,,0.00,VWS V14.01,2013-04-22 03:30:00,
2013-04-21 23:35:00,35.1,30.2,30.43,East,101,1.0,9.0,82,0.00,,,0.00,VWS V14.01,2013-04-22 03:35:00,
2013-04-21 23:40:00,35.1,30.2,30.43,ESE,113,1.0,9.0,82,0.00,,,0.00,VWS V14.01,2013-04-22 03:40:00,
2013-04-21 23:45:00,35.0,30.1,30.43,ESE,114,0.0,9.0,82,0.00,,,0.00,VWS V14.01,2013-04-22 03:45:00,
2013-04-21 23:50:00,34.8,30.2,30.43,East,83,2.0,9.0,83,0.00,,,0.00,VWS V14.01,2013-04-22 03:50:00,
2013-04-21 23:55:00,34.8,30.2,30.43,East,84,0.0,9.0,83,0.00,,,0.00,VWS V14.01,2013-04-22 03:55:00,